Location: Eastlake (historical)
(39.0077°N, 122.6678°W)
Time: 09:35:06
(UTC+00:00)

ASTRO F (AKARI) - Pass Details

Date: 25 November 2020
Orbit: 398 x 519 km, 98.2° (Epoch: 25 January)

Event Time Altitude Azimuth Distance (km) Brightness Sun altitude
Rises 14:00:18 0° 7° (N) 2,316 7.9 -12.5°
Reaches altitude 10° 14:02:18 10° 3° (N) 1,454 6.8 -12.2°
Maximum altitude 14:05:18 52° 286° (WNW) 509 4.3 -11.6°
Drops below altitude 10° 14:08:20 10° 208° (SSW) 1,464 6.9 -11.0°
Sets 14:10:21 0° 204° (SSW) 2,334 8.0 -10.7°
